Skip Page Navigation
NASA JPL Caltech
NASA Logo - Jet Propulsion Laboratory + View the NASA Portal
+ Near-Earth Object (NEO) Program
Search JPL
JPL Home Earth Solar System Stars & Galaxies Technology
JPL Solar System Dynamics
BODIES ORBITS EPHEMERIDES TOOLS PHYSICAL DATA DISCOVERY FAQ SITE MAP
JPL Small-Body Database Browser
Search: [ help ]  
188847 Rhipeus (2006 FT9)
Classification: Jupiter Trojan          SPK-ID: 2188847
Ephemeris | Orbit Diagram | Orbital Elements | Physical Parameters | Discovery Circumstances ]

[ hide orbit diagram ]
Orbit Diagram
Note: Make sure you have Java enabled on your browser to see the applet. This applet is provided as a 3D orbit visualization tool. The applet was implemented using 2-body methods, and hence should not be used for determining accurate long-term trajectories (over several years or decades) or planetary encounter circumstances. For accurate long-term ephemerides, please instead use our Horizons system.
Orbit Viewer

Additional Notes: the orbits shown in the applet are color coded. The planets are white lines, and the asteroid/comet is a blue line. The bright white line indicates the portion of the orbit that is above the ecliptic plane, and the darker portion is below the ecliptic plane. Likewise for the asteroid/comet orbit, the light blue indicates the portion above the ecliptic plane, and the dark blue the portion below the ecliptic plane.

Orbit Viewer applet originally written and kindly provided by Osamu Ajiki (AstroArts), and further modified by Ron Baalke (JPL).


Orbital Elements at Epoch 2456400.5 (2013-Apr-18.0) TDB
Reference: MPO237002 (heliocentric ecliptic J2000)
 Element Value Uncertainty (1-sigma)   Units 
e 0.0626803 n/a  
a 5.1893906 n/a AU
q 4.8641180 n/a AU
i 7.09653 n/a deg
node 232.88774 n/a deg
peri 263.66142 n/a deg
M 232.64023 n/a deg
tp 2457928.0756326
(2017-Jun-23.57563260)
n/a JED
period 4317.9037441
11.82
n/a
n/a
d
yr
n 0.08337379 n/a deg/d
Q 5.5146632 n/a AU
  Orbit Determination Parameters
   # obs. used (total)      64  
   first obs. used      2003-??-??  
   last obs. used      2012-08-11  
   # oppositions      7  
   planetary ephem.      DE403  
   condition code      0  
   fit RMS      0.41  
   data source      MPC:mpu  
   producer      MPCLINUX  

Additional Information
 T_jup = 2.981 
 MPC Jupiter Trojan 

Ephemeris | Orbit Diagram | Orbital Elements | Physical Parameters | Discovery Circumstances ]

Physical Parameter Table
Parameter Symbol Value Units Sigma Reference Notes
absolute magnitude H 14.0 mag n/a MPO237002  

188847 Rhipeus           Discovered 2006 Mar. 23 by Calvin College at the Calvin-Rehoboth Observatory.
According to Virgil, Rhipeus died fighting alongside Aeneas in the fall of Troy. The poet says that Rhipeus was "the single most just man among the Trojans and the best preserver of fairness, but the gods thought otherwise". In the Paradiso, Dante places him in the sphere of Jupiter in the eye of the eagle.
NOTE: some special characters may not display properly (any characters within {} are an attempt to place the proper accent above a character)
Reference: 20080819/MPCPages.arcLast Updated: 2008-08-25
Ephemeris | Orbit Diagram | Orbital Elements | Physical Parameters | Discovery Circumstances ]
ABOUT SSD CREDITS/AWARDS PRIVACY/COPYRIGHT GLOSSARY LINKS
FirstGov 2013-May-18 19:04 UT
(server date/time)  
NASA Home Page
Site Manager:   Donald K. Yeomans
Webmaster  Alan B. Chamberlin